Location: Cheching
(60.0667°N, 164.2167°W)
Time: 14:04:53
(UTC+00:00)

O/OREOS (USA 219) - Pass Details

Date: 22 January 2021
Orbit: 621 x 646 km, 72.0° (Epoch: 22 May)

Event Time Altitude Azimuth Distance (km) Brightness Sun altitude
Rises 03:35:16 0° 320° (NW) 2,962 ? -6.1°
Reaches altitude 10° 03:37:47 10° 309° (NW) 2,044 ? -6.3°
Maximum altitude 03:41:42 28° 251° (WSW) 1,193 ? -6.8°
Drops below altitude 10° 03:45:34 10° 192° (SSW) 2,018 ? -7.2°
Sets 03:48:03 0° 181° (S) 2,917 ? -7.5°
